sat.trackr.live / text

‹ back to catalog

STARLINK-2576

NORAD 48400 · 2021-038AZ

PAYLOAD ACTIVE UNKNOWN

§ Identity

Operator
Country
US
Launch date
2021-05-04
Launch site
AFETR
Launch vehicle
Mass (kg)
RCS (m²)

Purposes: comms

External: N2YO · Heavens-Above · Gunter

§ Orbital elements

Epoch: 2026-05-24T23:02:30.137856Z

Period
94.01 min
Inclination
53.1598°
Eccentricity
0.0001051
Mean motion
15.31716877 rev/d
Perigee alt
470.0 km
Apogee alt
471.4 km
Semi-major
6,848.8 km
B*
2.4728e-4
RAAN
338.1290°
Arg perigee
90.8930°
Mean anomaly
269.2192°
Rev number
27,912

§ Raw data

STARLINK-25761 48400U 21038AZ  26144.96007104  .00007320  00000+0  24728-3 0  99912 48400  53.1598 338.1290 0001051  90.8930 269.2192 15.31716877279129

JSON: /api/v1/satellites/48400 · /tle

For live sub-satellite position, see the globe view (requires WebGL).

§ Visibility from observer

Set your observer location to see the next 7 days of passes ≥ 10°. The values pass through the URL so the page stays shareable.

No JS? Fill the form by hand. The geolocation button needs JavaScript.